Dauntless Aviation
Airports North America Canada
CYLW
YLW

Kelowna International Airport

Kelowna, CANADA

Airport Info
Suggest Updated Information for this Airport

Location

Latitude / Longitude: 49°57'21"N / 119°22'40"W
  49°57.366'N / 119°22.68'W
  49.9561 / -119.3780

Nearby radio navigation aids

EX RUTLAND NDB. 335.5° 1.0nm from EX to field.
LW KELOWNA NDB. 147.1° 6.5nm from LW to field.

Runway Information

Runway 16 /34

Dimensions: 7300 x 200 ft.
Surface: ASP
 
Runway 16
Runway 34
Latitude: 49.966 49.946278
Longitude: -119.378961 -119.376461
Elevation: 1409 ft. 1409 ft.
Runway true heading: 166.6 346.6
 

Instrument Procedures

  Airport Diagram
  Parking Areas (Apron 1)
  Parking Areas (Apron 3)
Satellite photo at:
Airport distance calculator
From:
Weather Reports

METAR

CYLW

CYLW 190600Z AUTO 03004KT 9SM FEW110 M12/M15 A3026 RMK SLP280
CWJV
17.4nm N
CWJV 190600Z AUTO 00014KT M09/M11 RMK AO1 SLP271 T10881113 58007
CWUS
25.6nm S
CWUS 190600Z AUTO 29008KT M09/M13 RMK AO1 SLP274 T10911129 58004
CYYF
30.4nm S
CYYF 190600Z 36007KT 15SM SCT120 M10/M14 A3028 RMK AC3 SLP279

TAF

CYLW
TAF CYLW 190039Z 1901/1913 35008KT P6SM BKN080 BKN250 FM190800 36004KT P6SM FEW100 SCT250 RMK FCST BASED ON AUTO OBS. NXT FCST BY 190700Z
CYYF
30.4nm S
TAF CYYF 190039Z 1901/1913 02010KT P6SM SCT100 BKN250 TEMPO 1901/1909 BKN100 FM190900 35006KT P6SM FEW100 SCT250 RMK NXT FCST BY 190700Z
Safelog

 

Dauntless Aviation

© 2007-2019 Dauntless Aviation, all rights reserved
Information provided via PilotNav comes from a variety of official and unofficial data sources. As errors are possible, do not use PilotNav for primary flight planning purposes. Verify any information that you receive via PilotNav with current and canonical charts and other official documents. The material in this database is subject to database copyrights held by Dauntless Aviation and may not be copied without the express permission of Dauntless Aviation - licenses for use of part of all of this data are available for purchase; enquire via the Dauntless Aviation helpdesk. A number of mechanisms and markers exist in the database to protect against and identify infringement / copyright. Automated queries against this website are stictly prohibited, and all activity is logged and analyzed.